GW0472 Weather Reports


time (UTC)temp
C
wind
direction
speed
KPH
gust
KPH
rain 1hr
cm
rain 24hr
cm
rain mn
cm
humidity
%
barometer
mb
20260506151012 15 225 16.1 27.4 0.00 0.46 0.46 99 1007.4
20260506150508 15 208 9.7 16.1 0.00 0.46 0.46 99 1007.3
20260506150005 15 198 16.1 20.9 0.18 0.46 0.46 99 1007.2
20260506145502 15 192 6.4 12.9 0.18 0.46 0.46 99 1007.1
20260506144959 15 202 6.4 20.9 0.00 0.43 0.43 99 1007.4
20260506144456 15 181 14.5 16.1 0.13 0.43 0.43 99 1007.6
20260506143954 15 252 11.3 22.5 0.13 0.43 0.43 99 1008.0
20260506143451 15 173 6.4 16.1 0.00 0.41 0.41 99 1008.0
20260506142949 15 192 12.9 16.1 0.00 0.41 0.41 99 1008.2
20260506142446 15 178 9.7 22.5 0.18 0.41 0.41 99 1008.0
20260506141944 15 171 9.7 12.9 0.00 0.38 0.38 99 1008.1
20260506141442 15 198 8.0 17.7 0.00 0.38 0.38 99 1008.2
20260506140940 15 192 6.4 16.1 0.18 0.38 0.38 99 1007.9
20260506140437 15 191 4.8 12.9 0.18 0.38 0.38 99 1007.7
20260506135934 15 187 8.0 17.7 0.00 0.36 0.36 99 1007.7
20260506135431 15 199 6.4 25.7 0.13 0.36 0.36 99 1007.7
20260506134927 15 191 16.1 20.9 0.13 0.36 0.36 99 1007.9
20260506134423 15 220 11.3 20.9 0.00 0.33 0.33 99 1007.6
20260506133920 15 187 17.7 22.5 0.18 0.33 0.33 99 1007.6
20260506133417 15 187 8.0 20.9 0.18 0.33 0.33 99 1007.8
20260506132914 15 196 12.9 24.1 0.00 0.30 0.30 99 1008.0
20260506132411 15 197 8.0 16.1 0.13 0.30 0.30 99 1008.1
20260506131909 15 164 9.7 17.7 0.00 0.28 0.28 99 1007.9
20260506131405 15 174 11.3 20.9 0.18 0.28 0.28 99 1007.9
20260506130902 15 209 4.8 12.9 0.30 0.28 0.28 99 1007.9
20260506130358 15 234 4.8 11.3 0.13 0.25 0.25 99 1007.9
20260506125857 15 211 3.2 11.3 0.18 0.23 0.23 98 1008.0
20260506125355 15 167 8.0 14.5 0.00 0.20 0.20 98 1008.0
20260506124853 15 228 6.4 12.9 0.00 0.20 0.20 98 1008.2
20260506124349 15 234 8.0 11.3 0.13 0.20 0.20 98 1008.4
20260506123847 15 213 4.8 11.3 0.30 0.20 0.20 98 1007.7
20260506123345 15 195 11.3 12.9 0.18 0.18 0.18 97 1007.7
20260506122842 15 184 4.8 12.9 0.13 0.15 0.15 97 1007.9
20260506122339 15 213 11.3 14.5 0.13 0.15 0.15 96 1008.2
20260506121837 15 181 12.9 17.7 0.00 0.13 0.13 96 1008.2
20260506121334 15 240 6.4 17.7 0.18 0.13 0.13 95 1008.0
20260506120831 15 180 6.4 11.3 0.13 0.10 0.10 95 1008.3
20260506120329 15 199 6.4 11.3 0.30 0.10 0.10 95 1008.3
20260506115826 15 181 9.7 11.3 0.18 0.08 0.08 94 1008.2
20260506115324 15 210 9.7 11.3 0.18 0.05 0.05 93 1008.4
20260506114822 16 210 3.2 11.3 0.18 0.05 0.05 92 1008.3
20260506114319 16 208 4.8 11.3 0.00 0.03 0.03 92 1008.7
20260506113818 16 215 4.8 11.3 0.13 0.03 0.03 91 1008.7
20260506113315 16 213 6.4 8.0 0.13 0.03 0.03 90 1008.5
20260506112811 16 220 4.8 9.7 0.00 0.00 0.00 90 1008.4
20260506112309 16 214 9.7 12.9 0.00 0.00 0.00 89 1008.2
20260506111806 16 220 8.0 12.9 0.00 0.00 0.00 87 1008.1
20260506111304 16 237 1.6 4.8 0.00 0.00 0.00 87 1008.2
20260506110801 16 191 8.0 9.7 0.00 0.00 0.00 86 1007.9
20260506110258 16 204 4.8 11.3 0.00 0.00 0.00 86 1007.9
20260506105754 17 202 8.0 9.7 0.00 0.00 0.00 85 1007.6
20260506105252 17 234 4.8 12.9 0.00 0.00 0.00 83 1007.7
20260506104749 17 255 8.0 14.5 0.00 0.00 0.00 82 1007.8
20260506104247 17 243 8.0 12.9 0.00 0.00 0.00 82 1007.7
20260506103744 17 243 11.3 16.1 0.00 0.00 0.00 80 1007.5
20260506103241 17 229 8.0 17.7 0.00 0.00 0.00 80 1007.4
20260506102739 17 185 11.3 17.7 0.00 0.00 0.00 79 1007.2
20260506102237 18 208 8.0 14.5 0.00 0.00 0.00 78 1007.1
20260506101733 18 232 12.9 17.7 0.00 0.00 0.00 76 1007.2
20260506101230 18 218 4.8 9.7 0.00 0.00 0.00 76 1007.3
20260506100728 18 207 12.9 17.7 0.00 0.00 0.00 74 1007.2
20260506100226 18 214 9.7 16.1 0.00 0.00 0.00 74 1007.1
20260506095724 18 177 12.9 20.9 0.00 0.00 0.00 73 1007.1
20260506095220 18 199 6.4 14.5 0.00 0.00 0.00 72 1007.0
20260506094717 18 222 12.9 16.1 0.00 0.00 0.00 71 1007.1
20260506094215 18 197 6.4 12.9 0.00 0.00 0.00 70 1007.0
20260506093714 18 223 4.8 24.1 0.00 0.00 0.00 70 1007.2
20260506093210 18 198 6.4 17.7 0.00 0.00 0.00 70 1007.2
20260506092709 18 217 6.4 17.7 0.00 0.00 0.00 69 1007.1
20260506092206 18 207 8.0 20.9 0.00 0.00 0.00 69 1007.1
20260506091703 19 215 12.9 16.1 0.00 0.00 0.00 69 1007.0
20260506091201 19 172 8.0 22.5 0.00 0.00 0.00 69 1007.1
20260506090658 18 196 11.3 12.9 0.00 0.00 0.00 69 1007.2
20260506090155 18 187 11.3 17.7 0.00 0.00 0.00 68 1007.1
20260506085652 19 162 9.7 20.9 0.00 0.00 0.00 68 1007.2
20260506085148 19 206 8.0 16.1 0.00 0.00 0.00 68 1007.2
20260506084645 19 226 8.0 11.3 0.00 0.00 0.00 68 1007.3
20260506084141 19 206 8.0 24.1 0.00 0.00 0.00 68 1007.2
20260506083638 19 184 11.3 16.1 0.00 0.00 0.00 67 1007.5
20260506083136 19 167 16.1 20.9 0.00 0.00 0.00 67 1007.4
20260506082633 19 265 9.7 17.7 0.00 0.00 0.00 67 1007.4
20260506082128 19 226 11.3 22.5 0.00 0.00 0.00 67 1007.5
20260506081626 19 211 11.3 12.9 0.00 0.00 0.00 67 1007.5
20260506081124 19 212 12.9 20.9 0.00 0.00 0.00 67 1007.3
20260506080621 19 190 9.7 17.7 0.00 0.00 0.00 67 1007.6
20260506080118 19 200 3.2 12.9 0.00 0.00 0.00 66 1007.3
20260506073102 19 224 16.1 20.9 0.00 0.00 0.00 65 1007.5
20260506072558 19 198 11.3 16.1 0.00 0.00 0.00 65 1007.5
20260506072056 19 191 9.7 17.7 0.00 0.00 0.00 65 1007.5
20260506071554 19 190 11.3 22.5 0.00 0.00 0.00 64 1007.5
20260506071051 19 201 12.9 14.5 0.00 0.00 0.00 64 1007.6
20260506070548 19 225 8.0 12.9 0.00 0.00 0.00 64 1007.6
20260506062022 20 236 11.3 14.5 0.00 0.00 0.00 61 1008.0
20260506061518 20 190 9.7 11.3 0.00 0.00 0.00 61 1008.0
20260506061016 20 217 9.7 14.5 0.00 0.00 0.00 60 1008.1
20260506060514 20 217 6.4 17.7 0.00 0.00 0.00 60 1008.2
20260506050943 20 180 8.0 14.5 0.00 0.00 0.00 57 1008.5
20260506050441 20 212 6.4 16.1 0.00 0.00 0.00 57 1008.5
20260506044931 20 205 8.0 17.7 0.00 0.00 0.00 55 1008.6
20260506044430 20 208 8.0 16.1 0.00 0.00 0.00 54 1008.7
20260506043926 20 220 8.0 22.5 0.00 0.00 0.00 53 1008.5
20260506043423 20 177 6.4 12.9 0.00 0.00 0.00 54 1008.5
20260506042921 20 183 4.8 11.3 0.00 0.00 0.00 53 1008.7
20260506042420 20 251 8.0 12.9 0.00 0.00 0.00 53 1008.6
20260506041918 20 203 6.4 14.5 0.00 0.00 0.00 52 1008.8
20260506041415 20 173 6.4 9.7 0.00 0.00 0.00 52 1008.5
20260506040912 20 191 9.7 11.3 0.00 0.00 0.00 52 1008.8
20260506040410 20 198 8.0 16.1 0.00 0.00 0.00 51 1008.4
20260506035905 20 199 6.4 16.1 0.00 0.00 0.00 51 1008.6
20260506035403 20 177 8.0 14.5 0.00 0.00 0.00 51 1008.4
20260506034900 20 198 9.7 11.3 0.00 0.00 0.00 50 1008.4
20260506034358 20 208 6.4 12.9 0.00 0.00 0.00 50 1008.6
20260506033854 20 187 6.4 11.3 0.00 0.00 0.00 51 1008.7
20260506033351 21 205 4.8 9.7 0.00 0.00 0.00 50 1008.4
20260506032848 21 205 8.0 12.9 0.00 0.00 0.00 49 1008.5
20260506032345 21 209 9.7 14.5 0.00 0.00 0.00 49 1008.2
20260506031842 21 222 9.7 11.3 0.00 0.00 0.00 49 1008.3
20260506031339 21 199 8.0 9.7 0.00 0.00 0.00 49 1008.4
20260506030837 21 201 8.0 14.5 0.00 0.00 0.00 48 1008.4
20260506030335 21 188 9.7 16.1 0.00 0.00 0.00 48 1008.4
20260506025831 21 195 9.7 16.1 0.00 0.00 0.00 48 1008.2
20260506025327 21 222 11.3 14.5 0.00 0.00 0.00 47 1008.5
20260506024825 21 197 11.3 14.5 0.00 0.00 0.00 47 1008.4
20260506024321 21 229 8.0 9.7 0.00 0.00 0.00 46 1008.3
20260506023818 21 171 4.8 11.3 0.00 0.00 0.00 45 1008.5
20260506023314 21 218 9.7 17.7 0.00 0.00 0.00 44 1008.5
20260506022811 21 211 4.8 14.5 0.00 0.00 0.00 45 1008.5
20260506022309 21 202 6.4 14.5 0.00 0.00 0.00 43 1008.3
20260506021807 21 205 6.4 12.9 0.00 0.00 0.00 44 1008.5
20260506021303 21 217 6.4 12.9 0.00 0.00 0.00 42 1008.6
20260506020800 22 211 11.3 12.9 0.00 0.00 0.00 42 1008.5
20260506020258 22 248 6.4 11.3 0.00 0.00 0.00 42 1008.4
20260506015756 22 194 8.0 9.7 0.00 0.00 0.00 41 1008.5
20260506015253 22 212 6.4 14.5 0.00 0.00 0.00 41 1008.2
20260506014749 22 194 9.7 16.1 0.00 0.00 0.00 40 1008.1
20260506014246 22 160 8.0 14.5 0.00 0.00 0.00 40 1008.2
20260506013743 22 205 6.4 17.7 0.00 0.00 0.00 39 1007.8
20260506013240 23 209 8.0 16.1 0.00 0.00 0.00 39 1008.1
20260506012737 23 203 4.8 22.5 0.00 0.00 0.00 39 1008.0
20260506012234 23 211 12.9 20.9 0.00 0.00 0.00 38 1008.1
20260506011731 23 213 9.7 22.5 0.00 0.00 0.00 38 1007.8
20260506011227 23 140 9.7 17.7 0.00 0.00 0.00 38 1007.7
20260506010726 23 219 8.0 12.9 0.00 0.00 0.00 38 1007.8
20260506010223 23 181 11.3 17.7 0.00 0.00 0.00 37 1007.9
20260506005720 23 185 8.0 12.9 0.00 0.00 0.00 38 1007.8
20260506005216 23 243 8.0 16.1 0.00 0.00 0.00 37 1008.0
20260506004712 23 206 8.0 17.7 0.00 0.00 0.00 38 1007.6
20260506004210 23 178 8.0 16.1 0.00 0.00 0.00 38 1007.6
20260506003706 23 144 9.7 12.9 0.00 0.00 0.00 38 1007.3
20260506003202 23 184 17.7 24.1 0.00 0.00 0.00 37 1007.4
20260506002658 24 214 8.0 17.7 0.00 0.00 0.00 38 1007.3
20260506002155 24 173 11.3 16.1 0.00 0.00 0.00 38 1007.5
20260506001650 24 240 11.3 16.1 0.00 0.00 0.00 37 1007.2
20260506001148 24 209 14.5 20.9 0.00 0.00 0.00 37 1007.2
20260506000645 25 234 11.3 20.9 0.00 0.00 0.00 37 1007.2
20260506000142 24 227 12.9 25.7 0.00 0.00 0.00 37 1007.2
20260505235641 25 207 16.1 17.7 0.00 0.00 0.00 36 1007.1
20260505235138 25 147 25.7 35.4 0.00 0.00 0.00 36 1006.9
20260505234634 25 220 8.0 32.2 0.00 0.00 0.00 36 1007.2
20260505234131 25 167 14.5 25.7 0.00 0.00 0.00 36 1007.2
20260505233628 25 191 8.0 25.7 0.00 0.00 0.00 36 1007.1
20260505233126 25 221 17.7 32.2 0.00 0.00 0.00 35 1007.2
20260505232623 25 185 16.1 33.8 0.00 0.00 0.00 36 1007.1
20260505232121 25 202 9.7 22.5 0.00 0.00 0.00 37 1007.0
20260505231617 25 192 16.1 29.0 0.00 0.00 0.00 36 1007.0
20260505231116 26 195 8.0 24.1 0.00 0.00 0.00 37 1007.0
20260505230614 26 191 11.3 17.7 0.00 0.00 0.00 37 1007.0
20260505230110 26 196 11.3 32.2 0.00 0.00 0.00 35 1007.0
20260505225606 26 242 9.7 25.7 0.00 0.00 0.00 36 1007.0
20260505225102 26 218 9.7 24.1 0.00 0.00 0.00 37 1006.9
20260505224559 26 194 12.9 24.1 0.00 0.00 0.00 36 1006.9
20260505224057 26 266 12.9 17.7 0.00 0.00 0.00 37 1006.6
20260505223554 26 204 9.7 24.1 0.00 0.00 0.00 38 1007.0
20260505223050 26 244 12.9 22.5 0.00 0.00 0.00 36 1007.2
20260505222546 26 211 9.7 14.5 0.00 0.00 0.00 37 1007.2
20260505222043 26 197 8.0 16.1 0.00 0.00 0.00 37 1007.1
20260505221540 26 205 8.0 25.7 0.00 0.00 0.00 36 1006.7
20260505221036 26 102 4.8 17.7 0.00 0.00 0.00 36 1007.4
20260505220533 26 192 12.9 20.9 0.00 0.00 0.00 36 1007.2
20260505220031 26 219 12.9 29.0 0.00 0.00 0.00 36 1006.9
20260505215529 26 218 27.4 37.0 0.00 0.00 0.00 35 1006.7
20260505215027 26 203 8.0 20.9 0.00 0.00 0.00 36 1007.1
20260505214525 26 187 9.7 29.0 0.00 0.00 0.00 36 1006.9
20260505214021 26 240 20.9 29.0 0.00 0.00 0.00 35 1007.1
20260505213519 26 182 17.7 25.7 0.00 0.00 0.00 36 1006.7
20260505213015 26 194 24.1 33.8 0.00 0.00 0.00 35 1006.9
20260505212512 26 192 22.5 29.0 0.00 0.00 0.00 36 1007.1
20260505212009 27 199 16.1 25.7 0.00 0.00 0.00 36 1006.7
20260505211506 27 198 19.3 32.2 0.00 0.00 0.00 36 1007.0
20260505211003 27 190 16.1 25.7 0.00 0.00 0.00 38 1006.6
20260505210459 27 199 14.5 32.2 0.00 0.00 0.00 38 1006.9
20260505205956 27 244 17.7 38.6 0.00 0.00 0.00 36 1006.9
20260505205455 27 203 20.9 38.6 0.00 0.00 0.00 36 1006.7
20260505204951 27 213 24.1 35.4 0.00 0.00 0.00 37 1006.6
20260505204449 27 201 12.9 25.7 0.00 0.00 0.00 37 1006.9
20260505203946 27 218 14.5 32.2 0.00 0.00 0.00 37 1006.6
20260505203442 27 205 11.3 24.1 0.00 0.00 0.00 37 1006.4
20260505202939 27 186 4.8 14.5 0.00 0.00 0.00 40 1006.9
20260505202435 27 227 12.9 29.0 0.00 0.00 0.00 38 1006.6
20260505201932 27 189 11.3 16.1 0.00 0.00 0.00 38 1006.6
20260505201429 27 152 19.3 29.0 0.00 0.00 0.00 37 1006.9
20260505200927 27 216 25.7 35.4 0.00 0.00 0.00 38 1006.9
20260505200424 27 192 12.9 20.9 0.00 0.00 0.00 40 1006.9
20260505195919 27 200 4.8 17.7 0.00 0.00 0.00 40 1006.9
20260505195417 27 115 12.9 24.1 0.00 0.00 0.00 39 1007.1
20260505194914 27 191 4.8 24.1 0.00 0.00 0.00 39 1007.1
20260505194412 27 191 14.5 29.0 0.00 0.00 0.00 40 1007.2
20260505193911 27 190 11.3 33.8 0.00 0.00 0.00 40 1007.0
20260505193409 27 184 17.7 32.2 0.00 0.00 0.00 40 1007.3
20260505192907 27 212 11.3 27.4 0.00 0.00 0.00 41 1007.2
20260505192405 27 208 19.3 27.4 0.00 0.00 0.00 39 1007.4
20260505191902 27 206 9.7 35.4 0.00 0.00 0.00 41 1007.3
20260505191401 27 203 6.4 12.9 0.00 0.00 0.00 43 1007.5
20260505190857 27 190 14.5 17.7 0.00 0.00 0.00 40 1007.6
20260505190353 27 247 4.8 20.9 0.00 0.00 0.00 40 1007.6
20260505185848 27 189 17.7 24.1 0.00 0.00 0.00 38 1007.8
20260505185345 27 230 8.0 27.4 0.00 0.00 0.00 40 1007.8
20260505184841 27 203 12.9 17.7 0.00 0.00 0.00 39 1007.7
20260505184338 27 190 11.3 17.7 0.00 0.00 0.00 39 1007.9
20260505183835 26 177 4.8 20.9 0.00 0.00 0.00 43 1008.1
20260505183332 27 277 22.5 32.2 0.00 0.00 0.00 38 1008.1
20260505182829 26 219 14.5 29.0 0.00 0.00 0.00 42 1008.1
20260505182326 27 204 17.7 22.5 0.00 0.00 0.00 41 1008.4
20260505181822 26 218 4.8 27.4 0.00 0.00 0.00 42 1008.1
20260505181320 26 173 14.5 17.7 0.00 0.00 0.00 40 1008.2
20260505180816 26 221 16.1 25.7 0.00 0.00 0.00 43 1008.4
20260505180313 27 200 9.7 24.1 0.00 0.00 0.00 42 1008.4
20260505175809 26 205 12.9 37.0 0.00 0.00 0.00 41 1008.4
20260505175306 26 212 6.4 24.1 0.00 0.00 0.00 43 1008.2
20260505174802 26 221 19.3 24.1 0.00 0.00 0.00 42 1008.5
20260505174300 26 230 16.1 33.8 0.00 0.00 0.00 42 1008.6
20260505173755 26 219 12.9 25.7 0.00 0.00 0.00 42 1008.6
20260505173252 26 152 11.3 25.7 0.00 0.00 0.00 44 1008.6
20260505172749 26 212 14.5 22.5 0.00 0.00 0.00 43 1008.7
20260505172246 26 191 17.7 24.1 0.00 0.00 0.00 41 1008.6
20260505171746 26 204 11.3 37.0 0.00 0.00 0.00 42 1008.7
20260505171243 26 193 4.8 24.1 0.00 0.00 0.00 44 1008.4
20260505170740 26 187 14.5 29.0 0.00 0.00 0.00 42 1008.6
20260505170237 26 341 17.7 24.1 0.00 0.00 0.00 42 1008.9
20260505165732 26 261 14.5 20.9 0.00 0.00 0.00 41 1008.9
20260505165229 26 209 6.4 32.2 0.00 0.00 0.00 42 1009.2
20260505164724 26 218 19.3 24.1 0.00 0.00 0.00 42 1009.0
20260505164222 26 191 12.9 20.9 0.00 0.00 0.00 44 1009.4
20260505163720 25 288 6.4 16.1 0.00 0.00 0.00 43 1009.5
20260505163218 25 206 19.3 24.1 0.00 0.00 0.00 42 1009.5
20260505162715 26 193 19.3 24.1 0.00 0.00 0.00 42 1009.6
20260505162212 26 213 8.0 24.1 0.00 0.00 0.00 44 1009.7
20260505161709 26 160 8.0 16.1 0.00 0.00 0.00 44 1009.8
20260505161206 25 229 4.8 16.1 0.00 0.00 0.00 43 1009.8
20260505160704 26 252 16.1 20.9 0.00 0.00 0.00 42 1010.1
20260505160201 25 209 16.1 20.9 0.00 0.00 0.00 43 1009.7
20260505153140 25 242 4.8 14.5 0.00 0.00 0.00 47 1009.9
20260505152637 25 206 9.7 12.9 0.00 0.00 0.00 47 1010.1
20260505152133 25 276 9.7 20.9 0.00 0.00 0.00 49 1009.8
20260505151629 25 160 6.4 16.1 0.00 0.00 0.00 49 1010.1